Date String (YYYY-MM-DD hh:mm:ss) UTC,Instrument flags,absolute air pressure of the measurement (hPa),sample flow rate (lpm),inlet stack bypass flow (lpm),air temperature of the measurement (°C),ambient temperature measured by the external sensor (°C),aerosol sample conditioner tube jacket temperature (°C),OPC LED temperature (°C),internal box temperature (°C),relative humidity of the measurement (%),span deviation,mass concentration of particles derived from Lorenz-Mie calculation of OPC scattering (μg/m³),mass concentration of particles derived from Lorenz-Mie calculation of OPC scattering (μg/m³),mass concentration of particles derived from Lorenz-Mie calculation of OPC scattering (μg/m³)
DateTimeUTC,F1_M11,P_M11,Q1_M11,Q2_M11,T1_M11,T2_M11,T3_M11,T4_M11,T5_M11,U1_M11,ZSPAN_M11,X0_M11,X2_M11,X1_M11
2024-06-12 02:00:00,SystemResetWarning,0827.8,5.00,000.00,029.1,028.7,000.0,037.2,031.1,029.2,0000.0,0027.30,0007.00,0005.61
2024-06-12 02:01:00,SystemResetWarning,0827.8,5.00,000.00,029.2,028.9,000.0,037.3,031.1,029.3,0000.0,0026.74,0007.03,0005.60
2024-06-12 02:02:00,SystemResetWarning,0827.8,4.99,000.00,029.3,029.0,000.0,037.3,031.2,028.6,0000.0,0026.10,0007.01,0005.58
2024-06-12 02:03:00,SystemResetWarning,0827.8,4.99,000.00,029.4,029.2,000.0,037.4,031.3,028.8,0000.0,0026.03,0006.98,0005.55
2024-06-12 02:04:00,SystemResetWarning,0827.7,4.99,000.00,029.5,028.8,000.0,037.5,031.2,028.6,0000.0,0024.41,0006.91,0005.52
2024-06-12 02:05:00,SystemResetWarning,0827.7,5.00,000.00,029.2,026.7,000.0,037.5,030.1,028.7,0000.0,0022.96,0006.89,0005.49
2024-06-12 02:06:00,SystemResetWarning,0827.7,5.02,000.00,028.8,025.5,000.0,037.5,029.5,029.3,0000.0,0020.19,0006.93,0005.45
2024-06-12 02:07:00,SystemResetWarning,0827.7,5.00,000.00,028.7,025.7,000.0,037.5,029.6,029.7,0000.0,0019.34,0006.94,0005.43
2024-06-12 02:08:00,SystemResetWarning,0827.7,5.00,000.00,028.6,026.2,000.0,037.4,029.8,029.8,0000.0,0018.81,0006.91,0005.41
2024-06-12 02:09:00,SystemResetWarning,0827.7,5.00,000.00,028.7,026.7,000.0,037.3,030.1,029.8,0000.0,0018.66,0006.90,0005.39
2024-06-12 02:10:00,SystemResetWarning,0827.8,5.01,000.00,028.7,027.1,000.0,037.2,030.3,029.8,0000.0,0018.18,0006.85,0005.36
2024-06-12 02:11:00,SystemResetWarning,0827.8,5.00,000.00,028.8,027.5,000.0,037.2,030.5,029.8,0000.0,0017.95,0006.80,0005.36
2024-06-12 02:12:00,SystemResetWarning,0827.8,5.00,000.00,028.9,027.9,000.0,037.2,030.7,029.7,0000.0,0017.18,0006.74,0005.37
2024-06-12 02:13:00,SystemResetWarning,0827.9,5.00,000.00,029.0,028.2,000.0,037.2,030.8,029.5,0000.0,0016.59,0006.74,0005.37
2024-06-12 02:14:00,SystemResetWarning,0827.8,5.00,000.00,029.1,028.4,000.0,037.2,030.9,029.4,0000.0,0015.90,0006.74,0005.37
2024-06-12 02:15:00,SystemResetWarning,0827.9,5.00,000.00,029.2,028.6,000.0,037.3,031.1,029.1,0000.0,0016.50,0006.78,0005.36
2024-06-12 02:16:00,SystemResetWarning,0828.0,5.00,000.00,029.3,028.8,000.0,037.3,031.2,028.7,0000.0,0017.42,0006.78,0005.35
2024-06-12 02:17:00,SystemResetWarning,0828.0,5.00,000.00,029.3,029.0,000.0,037.3,031.3,028.6,0000.0,0018.41,0006.73,0005.35
2024-06-12 02:18:00,SystemResetWarning,0828.1,5.00,000.00,029.4,029.1,000.0,037.4,031.3,028.2,0000.0,0019.04,0006.65,0005.32
2024-06-12 02:19:00,SystemResetWarning,0828.1,4.99,000.00,029.5,029.2,000.0,037.5,031.4,028.1,0000.0,0018.55,0006.65,0005.30
2024-06-12 02:20:00,SystemResetWarning,0828.0,5.00,000.00,029.4,027.7,000.0,037.5,030.7,028.2,0000.0,0018.48,0006.68,0005.29
2024-06-12 02:21:00,SystemResetWarning,0828.0,5.01,000.00,029.0,025.7,000.0,037.6,029.7,029.3,0000.0,0018.61,0006.64,0005.29
2024-06-12 02:22:00,SystemResetWarning,0827.9,5.01,000.00,028.7,025.5,000.0,037.5,029.4,031.9,0000.0,0018.34,0006.60,0005.28
2024-06-12 02:23:00,SystemResetWarning,0828.0,5.00,000.00,028.6,025.9,000.0,037.4,029.6,032.8,0000.0,0018.82,0006.64,0005.30
2024-06-12 02:24:00,SystemResetWarning,0828.1,5.00,000.00,028.6,026.4,000.0,037.3,029.9,033.0,0000.0,0019.31,0006.68,0005.32
2024-06-12 02:25:00,SystemResetWarning,0828.1,5.00,000.00,028.7,026.9,000.0,037.3,030.2,032.8,0000.0,0020.21,0006.78,0005.35
2024-06-12 02:26:00,SystemResetWarning,0828.1,5.00,000.00,028.7,027.3,000.0,037.2,030.4,032.9,0000.0,0020.65,0006.84,0005.39
2024-06-12 02:27:00,SystemResetWarning,0828.1,5.00,000.00,028.8,027.7,000.0,037.2,030.6,032.5,0000.0,0020.17,0006.89,0005.43
2024-06-12 02:28:00,SystemResetWarning,0828.2,5.00,000.00,028.9,028.0,000.0,037.2,030.7,032.4,0000.0,0019.91,0006.94,0005.47
2024-06-12 02:29:00,SystemResetWarning,0828.2,5.00,000.00,029.0,028.2,000.0,037.2,030.8,031.6,0000.0,0019.47,0007.00,0005.51
2024-06-12 02:30:00,SystemResetWarning,0828.2,5.00,000.00,029.1,028.5,000.0,037.2,031.0,030.8,0000.0,0020.01,0007.08,0005.56
2024-06-12 02:31:00,SystemResetWarning,0828.2,5.00,000.00,029.2,028.7,000.0,037.3,031.1,030.6,0000.0,0020.35,0007.04,0005.58
2024-06-12 02:32:00,SystemResetWarning,0828.2,5.00,000.00,029.3,028.8,000.0,037.3,031.2,030.6,0000.0,0019.91,0007.09,0005.60
2024-06-12 02:33:00,SystemResetWarning,0828.2,5.00,000.00,029.4,029.0,000.0,037.4,031.3,029.8,0000.0,0021.20,0007.18,0005.62
2024-06-12 02:34:00,SystemResetWarning,0828.2,4.99,000.00,029.5,029.1,000.0,037.4,031.4,029.3,0000.0,0022.63,0007.19,0005.60
2024-06-12 02:35:00,SystemResetWarning,0828.2,5.00,000.00,029.5,029.2,000.0,037.5,031.4,029.3,0000.0,0022.80,0007.14,0005.56
2024-06-12 02:36:00,SystemResetWarning,0828.2,4.99,000.00,029.6,029.3,000.0,037.5,031.5,029.6,0000.0,0022.67,0007.05,0005.53
2024-06-12 02:37:00,SystemResetWarning,0828.1,5.00,000.00,029.5,027.9,000.0,037.6,030.9,029.9,0000.0,0022.66,0006.99,0005.49
2024-06-12 02:38:00,SystemResetWarning,0828.0,5.00,000.00,029.1,025.6,000.0,037.6,029.8,030.8,0000.0,0021.77,0006.88,0005.44
2024-06-12 02:39:00,SystemResetWarning,0828.1,5.00,000.00,028.8,025.2,000.0,037.6,029.4,031.2,0000.0,0021.57,0006.80,0005.38
2024-06-12 02:40:00,SystemResetWarning,0828.1,5.02,000.00,028.7,025.7,000.0,037.5,029.6,031.3,0000.0,0021.36,0006.70,0005.34
2024-06-12 02:41:00,SystemResetWarning,0828.1,5.00,000.00,028.7,026.2,000.0,037.4,029.9,031.4,0000.0,0019.95,0006.63,0005.29
2024-06-12 02:42:00,SystemResetWarning,0828.2,4.99,000.00,028.7,026.7,000.0,037.3,030.2,031.2,0000.0,0019.33,0006.54,0005.23
2024-06-12 02:43:00,SystemResetWarning,0828.2,5.01,000.00,028.8,027.1,000.0,037.3,030.4,031.1,0000.0,0020.30,0006.44,0005.17
2024-06-12 02:44:00,SystemResetWarning,0828.2,5.01,000.00,028.8,027.5,000.0,037.3,030.5,030.6,0000.0,0020.80,0006.34,0005.11
2024-06-12 02:45:00,SystemResetWarning,0828.2,5.00,000.00,028.9,027.9,000.0,037.3,030.7,030.8,0000.0,0019.59,0006.26,0005.05
2024-06-12 02:46:00,SystemResetWarning,0828.2,5.00,000.00,029.0,028.1,000.0,037.3,030.8,030.9,0000.0,0018.22,0006.21,0005.02
2024-06-12 02:47:00,SystemResetWarning,0828.2,5.00,000.00,029.1,028.3,000.0,037.3,030.9,030.9,0000.0,0017.58,0006.13,0004.98
2024-06-12 02:48:00,SystemResetWarning,0828.2,5.00,000.00,029.1,028.5,000.0,037.3,031.0,030.9,0000.0,0017.57,0006.09,0004.95
2024-06-12 02:49:00,SystemResetWarning,0828.2,5.01,000.00,029.2,028.7,000.0,037.3,031.1,030.9,0000.0,0018.95,0006.06,0004.92
2024-06-12 02:50:00,SystemResetWarning,0828.2,5.00,000.00,029.3,028.8,000.0,037.4,031.2,030.9,0000.0,0019.09,0005.99,0004.89
2024-06-12 02:51:00,SystemResetWarning,0828.2,4.99,000.00,029.4,029.0,000.0,037.4,031.3,030.8,0000.0,0018.77,0005.99,0004.88
2024-06-12 02:52:00,SystemResetWarning,0828.2,5.00,000.00,029.5,029.1,000.0,037.5,031.3,030.7,0000.0,0018.93,0006.00,0004.86
2024-06-12 02:53:00,SystemResetWarning,0828.2,5.00,000.00,029.5,029.2,000.0,037.5,031.4,030.6,0000.0,0018.74,0005.95,0004.85
2024-06-12 02:54:00,SystemResetWarning,0828.2,5.01,000.00,029.6,029.3,000.0,037.6,031.5,030.4,0000.0,0017.86,0005.97,0004.86
2024-06-12 02:55:00,SystemResetWarning,0828.2,5.01,000.00,029.7,029.4,000.0,037.6,031.6,030.2,0000.0,0017.89,0005.94,0004.87
2024-06-12 02:56:00,SystemResetWarning,0828.2,4.98,000.00,029.7,028.4,000.0,037.7,031.1,030.3,0000.0,0017.49,0005.93,0004.90
2024-06-12 02:57:00,SystemResetWarning,0828.2,5.00,000.00,029.3,026.7,000.0,037.8,030.3,030.9,0000.0,0018.67,0005.98,0004.94
2024-06-12 02:58:00,SystemResetWarning,0828.1,5.00,000.00,029.1,026.6,000.0,037.7,030.1,031.2,0000.0,0019.00,0006.04,0004.95
2024-06-12 02:59:00,SystemResetWarning,0828.2,4.99,000.00,029.1,026.9,000.0,037.6,030.3,030.7,0000.0,0018.54,0006.07,0004.99
